FW8134 Weather Reports


Display with metric or nautical units.
time (UTC)temp
F
wind
direction
speed
MPH
gust
MPH
rain 1hr
in
rain 24hr
in
rain mn
in
humidity
%
barometer
mb
20260903224018 63 0.0 0.0 0.00 0.00 0.00 93 1002.9
20260903223020 63 0.0 0.0 0.00 0.00 0.00 93 1002.9
20260903222016 64 0.0 0.0 0.00 0.00 0.00 93 1003.0
20260903221017 64 0.0 0.0 0.00 0.00 0.00 92 1002.9
20260903220018 64 0.0 0.0 0.00 0.00 0.00 92 1003.1
20260903215020 64 0.0 0.0 0.00 0.00 0.00 92 1003.1
20260903214036 65 0.0 0.0 0.00 0.00 0.00 92 1003.2
20260903213037 65 0.0 0.0 0.00 0.00 0.00 91 1003.1
20260903212018 65 0.0 0.0 0.00 0.00 0.00 91 1003.1
20260903211040 66 0.0 0.0 0.00 0.00 0.00 91 1003.2
20260903210016 66 0.0 0.0 0.00 0.00 0.00 90 1003.3
20260903205017 67 0.0 0.0 0.00 0.00 0.00 90 1003.2
20260903204018 67 0.0 0.0 0.00 0.00 0.00 89 1003.3
20260903203019 68 0.0 0.0 0.00 0.00 0.00 88 1003.3
20260903202016 68 0.0 0.0 0.00 0.00 0.00 87 1003.3
20260903201037 69 0.0 0.0 0.00 0.00 0.00 86 1003.3
20260903200018 69 0.0 0.0 0.00 0.00 0.00 85 1003.2
20260903195039 70 0.0 0.0 0.00 0.00 0.00 84 1003.3
20260903194015 71 0.0 0.0 0.00 0.00 0.00 83 1003.3
20260903193017 71 0.0 0.0 0.00 0.00 0.00 82 1003.3
20260903192018 72 0.0 0.0 0.00 0.00 0.00 81 1003.4
20260903191019 73 0.0 0.0 0.00 0.00 0.00 80 1003.3
20260903190016 74 0.0 0.0 0.00 0.00 0.00 78 1003.3
20260903185017 74 0.0 0.0 0.00 0.00 0.00 77 1003.3
20260903184018 75 0.0 0.0 0.00 0.00 0.00 75 1003.3
20260903183019 76 0.0 0.0 0.00 0.00 0.00 74 1003.2
20260903182015 76 0.0 0.0 0.00 0.00 0.00 73 1003.3
20260903181017 77 0.0 0.0 0.00 0.00 0.00 72 1003.4
20260903180018 78 164 0.0 1.0 0.00 0.00 0.00 72 1003.5
20260903175019 78 234 0.0 2.0 0.00 0.00 0.00 71 1003.5
20260903174020 78 252 0.0 2.0 0.00 0.00 0.00 70 1003.5
20260903173037 79 233 1.0 6.0 0.00 0.00 0.00 68 1003.5
20260903172018 79 248 0.0 6.0 0.00 0.00 0.00 68 1003.5
20260903171019 80 240 2.0 8.0 0.00 0.00 0.00 67 1003.4
20260903170020 80 241 2.0 5.0 0.00 0.00 0.00 68 1003.5
20260903165016 80 220 1.0 6.0 0.00 0.00 0.00 67 1003.6
20260903164018 80 224 1.0 9.0 0.00 0.00 0.00 68 1003.6
20260903163019 80 231 2.0 7.0 0.00 0.00 0.00 67 1003.6
20260903162020 80 230 2.0 5.0 0.00 0.00 0.00 67 1003.5
20260903161036 80 201 1.0 4.0 0.00 0.00 0.00 67 1003.5
20260903160018 80 208 2.0 5.0 0.00 0.00 0.00 68 1003.5
20260903155039 80 212 1.0 5.0 0.00 0.00 0.00 68 1003.5
20260903154020 80 244 3.0 8.0 0.00 0.00 0.00 67 1003.5
20260903153021 80 237 2.0 4.0 0.00 0.00 0.00 67 1003.6
20260903152017 80 242 1.0 9.0 0.00 0.00 0.00 67 1003.8
20260903151018 80 259 2.0 6.0 0.00 0.00 0.00 67 1003.9
20260903150019 80 228 2.0 4.0 0.00 0.00 0.00 67 1003.9
20260903145021 81 232 3.0 11.0 0.00 0.00 0.00 66 1003.9
20260903144037 81 225 2.0 5.0 0.00 0.00 0.00 67 1004.0
20260903143018 80 211 3.0 10.0 0.00 0.00 0.00 66 1004.0
20260903142019 80 237 3.0 9.0 0.00 0.00 0.00 66 1004.0
20260903141020 80 224 3.0 7.0 0.00 0.00 0.00 67 1004.0
20260903140016 80 221 4.0 9.0 0.00 0.00 0.00 66 1004.1
20260903135017 80 251 2.0 7.0 0.00 0.00 0.00 67 1004.2
20260903134019 80 239 3.0 6.0 0.00 0.00 0.00 66 1004.1
20260903133019 80 217 3.0 9.0 0.00 0.00 0.00 66 1004.1
20260903132021 80 226 3.0 9.0 0.00 0.00 0.00 66 1004.1
20260903131037 80 217 4.0 10.0 0.00 0.00 0.00 66 1004.2
20260903130018 79 200 2.0 9.0 0.00 0.00 0.00 67 1004.2
20260903125039 79 226 3.0 10.0 0.00 0.00 0.00 66 1004.3
20260903124040 79 243 3.0 14.0 0.00 0.00 0.00 66 1004.3
20260903123016 79 222 3.0 9.0 0.00 0.00 0.00 66 1004.3
20260903122018 78 205 3.0 7.0 0.00 0.00 0.00 65 1004.2
20260903121019 78 177 2.0 4.0 0.00 0.00 0.00 66 1004.3
20260903120020 78 197 3.0 9.0 0.00 0.00 0.00 66 1004.3
20260903115036 77 213 4.0 9.0 0.00 0.00 0.00 66 1004.4
20260903114017 77 217 3.0 7.0 0.00 0.00 0.00 67 1004.5
20260903113019 76 186 3.0 7.0 0.00 0.00 0.00 67 1004.5
20260903112015 76 227 3.0 10.0 0.00 0.00 0.00 67 1004.5
20260903111036 76 234 2.0 5.0 0.00 0.00 0.00 67 1004.6
20260903110017 75 206 3.0 7.0 0.00 0.00 0.00 68 1004.6
20260903105018 75 201 3.0 5.0 0.00 0.00 0.00 68 1004.6
20260903104020 74 228 3.0 9.0 0.00 0.00 0.00 69 1004.7
20260903103015 74 194 2.0 8.0 0.00 0.00 0.00 70 1004.7
20260903102017 74 190 1.0 6.0 0.00 0.00 0.00 70 1004.7
20260903101018 74 196 2.0 6.0 0.00 0.00 0.00 70 1004.7
20260903100019 73 218 2.0 6.0 0.00 0.00 0.00 71 1004.7
20260903095015 73 222 2.0 7.0 0.00 0.00 0.00 73 1004.8
20260903094017 72 198 3.0 8.0 0.00 0.00 0.00 74 1004.7
20260903093018 71 211 3.0 8.0 0.00 0.00 0.00 75 1004.9
20260903092019 71 186 2.0 6.0 0.00 0.00 0.00 76 1005.0
20260903091015 71 232 3.0 6.0 0.00 0.00 0.00 76 1005.0
20260903090036 70 204 1.0 4.0 0.00 0.00 0.00 79 1004.9
20260903085017 69 213 3.0 9.0 0.00 0.00 0.00 80 1004.8
20260903084019 69 210 3.0 6.0 0.00 0.00 0.00 80 1004.8
20260903083015 69 208 3.0 8.0 0.00 0.00 0.00 79 1004.7
20260903082016 69 220 3.0 8.0 0.00 0.00 0.00 79 1005.0
20260903081017 69 195 1.0 6.0 0.00 0.00 0.00 81 1004.7
20260903080019 68 201 2.0 5.0 0.00 0.00 0.00 81 1004.7
20260903075020 68 215 3.0 7.0 0.00 0.00 0.00 81 1004.8
20260903074016 67 195 1.0 8.0 0.00 0.00 0.00 83 1004.8
20260903073017 66 193 1.0 5.0 0.00 0.00 0.00 85 1004.8
20260903072038 65 208 2.0 6.0 0.00 0.00 0.00 85 1004.5
20260903071020 64 195 1.0 5.0 0.00 0.00 0.00 88 1004.6
20260903070015 63 207 2.0 4.0 0.00 0.00 0.00 89 1004.5
20260903065017 62 196 0.0 2.0 0.00 0.00 0.00 92 1004.5
20260903064018 61 233 0.0 1.0 0.00 0.00 0.00 95 1004.5
20260903063019 59 234 0.0 1.0 0.00 0.00 0.00 96 1004.5
20260903062015 58 0.0 0.0 0.00 0.00 0.00 96 1004.6
20260903061016 55 0.0 0.0 0.00 0.00 0.00 97 1004.5
20260903060038 53 0.0 0.0 0.00 0.00 0.00 96 1004.6
20260903055019 53 0.0 0.0 0.00 0.00 0.00 96 1004.6
20260903054035 53 0.0 0.0 0.00 0.00 0.00 96 1004.3
20260903053016 53 0.0 0.0 0.00 0.00 0.00 96 1004.2
20260903052018 53 0.0 0.0 0.00 0.00 0.00 96 1003.9
20260903051019 53 0.0 0.0 0.00 0.00 0.00 96 1003.8
20260903050022 53 0.0 0.0 0.00 0.00 0.00 95 1003.7
20260903045036 53 0.0 0.0 0.00 0.00 0.00 95 1003.7
20260903044018 53 0.0 0.0 0.00 0.00 0.00 95 1003.9
20260903043039 53 0.0 0.0 0.00 0.00 0.00 95 1003.8
20260903042040 53 0.0 0.0 0.00 0.00 0.00 95 1003.7
20260903041017 53 0.0 0.0 0.00 0.00 0.00 95 1003.5
20260903040038 54 0.0 0.0 0.00 0.00 0.00 95 1003.5
20260903035019 54 235 0.0 1.0 0.00 0.00 0.00 95 1003.4
20260903034040 54 0.0 0.0 0.00 0.00 0.00 95 1003.7
20260903033016 54 0.0 0.0 0.00 0.00 0.00 95 1003.9
20260903032017 54 0.0 0.0 0.00 0.00 0.00 95 1003.9
20260903031039 54 0.0 0.0 0.00 0.00 0.00 95 1004.0
20260903030020 54 0.0 0.0 0.00 0.00 0.00 95 1003.9
20260903025016 54 0.0 0.0 0.00 0.00 0.00 95 1003.8
20260903024017 54 0.0 0.0 0.00 0.00 0.00 95 1003.9
20260903023019 54 0.0 0.0 0.00 0.00 0.00 94 1003.7
20260903022020 54 0.0 0.0 0.00 0.00 0.00 94 1003.7
20260903021017 54 0.0 0.0 0.00 0.00 0.00 94 1003.7
20260903020018 54 0.0 0.0 0.00 0.00 0.00 94 1003.8
20260903015019 54 0.0 0.0 0.00 0.00 0.00 94 1003.8
20260903014037 54 0.0 0.0 0.00 0.00 0.00 94 1003.8
20260903013016 54 0.0 0.0 0.00 0.00 0.00 93 1003.7
20260903012018 55 0.0 0.0 0.00 0.00 0.00 94 1003.8
20260903011019 55 0.0 0.0 0.00 0.00 0.00 93 1003.8
20260903010015 55 0.0 0.0 0.00 0.00 0.00 93 1003.7
20260903005016 55 0.0 0.0 0.00 0.00 0.00 93 1003.7
20260903004018 55 0.0 0.0 0.00 0.00 0.00 93 1003.8
20260903003019 55 0.0 0.0 0.00 0.00 0.00 93 1003.9
20260903002015 55 0.0 0.0 0.00 0.00 0.00 92 1003.8
20260903001016 55 0.0 0.0 0.00 0.00 0.00 92 1003.7
20260903000018 55 0.0 0.0 0.00 0.00 0.00 92 1003.8
20260902235019 56 0.0 0.0 0.00 0.00 0.00 92 1003.8
20260902234015 56 0.0 0.0 0.00 0.00 0.00 91 1003.7
20260902233016 56 0.0 0.0 0.00 0.00 0.00 91 1003.8
20260902232017 56 0.0 0.0 0.00 0.00 0.00 91 1003.9
20260902231019 56 0.0 0.0 0.00 0.00 0.00 91 1004.0
20260902230020 56 0.0 0.0 0.00 0.00 0.00 90 1003.9
20260902225016 57 0.0 0.0 0.00 0.00 0.00 90 1004.1